This is the latest recevied weather packets stored in our database for station/object N5JXS. If no packets are shown the sender has not sent any weather packets the latest 10 day(s).
| Time | Temp. | Humidity | Pressure | Rain* | Wind** | Luminosity | Snow |
|---|---|---|---|---|---|---|---|
| 1777556374 | 0° C | 98% | 1023 hPa | 0 mm | - | 22 W/m² | - |
| 1777556074 | 0° C | 98% | 1023 hPa | 0 mm | - | 19 W/m² | - |
| 1777555768 | 0° C | 98% | 1023.1 hPa | 0 mm | - | 26 W/m² | - |
| 1777555466 | 0° C | 98% | 1022.9 hPa | 0 mm | - | 31 W/m² | - |
| 1777555161 | 0° C | 98% | 1022.9 hPa | 0 mm | - | 22 W/m² | - |
| 1777554859 | 0° C | 98% | 1022.7 hPa | 0 mm | - | 18 W/m² | - |
| 1777554556 | 0° C | 98% | 1022.6 hPa | 0 mm | - | 17 W/m² | - |
| 1777554252 | 0° C | 98% | 1022.7 hPa | 0 mm | - | 15 W/m² | - |
| 1777553949 | 0° C | 98% | 1022.5 hPa | 0 mm | - | 10 W/m² | - |
| 1777553645 | 0° C | 98% | 1022.7 hPa | 0 mm | - | 8 W/m² | - |
| 1777553343 | 0° C | 98% | 1022.5 hPa | 0 mm | - | 3 W/m² | - |
| 1777553039 | 0° C | 98% | 1022.4 hPa | 0 mm | - | 2 W/m² | - |
| 1777552733 | 0° C | 98% | 1022.5 hPa | 0 mm | - | 2 W/m² | - |
| 1777552430 | 0° C | 98% | 1022.1 hPa | 0 mm | - | 1 W/m² | - |
| 1777552126 | 0° C | 98% | 1022.5 hPa | 0 mm | - | 1 W/m² | - |
| 1777551824 | 0° C | 98% | 1022.4 hPa | 0 mm | - | 0 W/m² | - |
| 1777551521 | 0° C | 98% | 1022.4 hPa | 0 mm | - | 0 W/m² | - |
| 1777551217 | 0° C | 98% | 1022.1 hPa | 0 mm | - | 0 W/m² | - |
| 1777550915 | 0° C | 98% | 1022.4 hPa | 0 mm | - | 0 W/m² | - |
| 1777550611 | 0° C | 98% | 1022.2 hPa | 0 mm | - | 0 W/m² | - |
| 1777550307 | 0° C | 98% | 1022.1 hPa | 0 mm | - | 0 W/m² | - |
| 1777550004 | 0° C | 98% | 1022.2 hPa | 0 mm | - | 0 W/m² | - |
| 1777549701 | 0° C | 98% | 1022.2 hPa | 0 mm | - | 0 W/m² | - |
| 1777549400 | 0° C | 98% | 1022.2 hPa | 0 mm | - | 0 W/m² | - |
| 1777549098 | 0° C | 98% | 1022.1 hPa | 0 mm | - | 0 W/m² | - |
* Rain latest hour (hover to see other rain measurements)
** Current wind speed in m/s (hover to see current wind gust speed)